Погода в Свободном

Украина / Донецкая область     47°31′54″N   37°33′41″E
темп.,
°C
ветер,
м/с
пор.,
м/с
влажн.,
%
обл.,
%
осадки,
мм/ч
давл.,
гПа
погр.,
м
17 апреля, сб
сб1700:00+6ююз369136 0.0 1019147
03:00+6юз369626 1.6 1019274
06:00+3зсз35942 0.0 1020112
09:00+8з46595 0.0 1021952
12:00+12з6751100 0.0 10211748
15:00+12з5551100 0.0 10211524
18:00+10з2461100 0.0 1021181
21:00+9юз34729 0.0 1022139
18 апреля, вс
вс1800:00+6ююз22805 0.0 102114
03:00+6юв1177100 0.0 102110
06:00+5вюв2280100 0.0 102129
09:00+10вюв456480 0.0 1020522
12:00+13юв454995 0.0 10191503
15:00+14юв444733 0.0 10181529
18:00+11ююв546422 0.0 1018426
21:00+9ююв3577100 0.0 1018305
19 апреля, пн
пн1900:00+8вюв248775 0.0 1017199
03:00+8в2389100 0.0 1016198
06:00+8всв2492100 0.3 1015202
09:00+10всв3489100 0.4 1015327
12:00+11в2283100 0.1 1014507
15:00+11вюв3383100 0.1 1013412
18:00+12вюв3379100 0.0 1012661
21:00+11вюв3690100 0.0 1011288
20 апреля, вт
вт2000:00+10в4896100 0.0 1009376
03:00+10в51098100 2.6 1005404
06:00+11в51298100 7.6 1001343
09:00+12вюв71398100 17.1 999498
12:00+12ююз71095100 3.9 999819
15:00+14ююз101370100 4.1 10001437
18:00+9ююз101787100 0.1 10011269
21:00+7ююз121891100 0.4 10011037
21 апреля, ср
ср2100:00+8зюз101589100 0.3 1006992
03:00+8юз8149199 0.4 1010792
06:00+6юз4109429 0.0 1013344
09:00+11юз697123 0.0 1015833
12:00+13зюз7952100 0.1 10162078
15:00+14зюз675531 0.3 10171574
18:00+12ююз576898 1.1 1018775
21:00+8ю378811 1.2 1020144